Location: Dillon
(41.1766°N, 107.0923°W)
Time: 09:13:42
(UTC+00:00)

CUTE 1.7 + AOD 2 - Visible Passes

Search period start: 27 June 2022 00:00
Search period end: 07 July 2022 00:00
Orbit: 591 x 607 km, 97.7° (Epoch: 26 June)

Date Brightness Start Highest point End Pass type
(mag) Time Alt. Az. Time Alt. Az. Time Alt. Az.
29 Jun ? 09:53:03 10° ENE 09:55:08 13° E 09:57:11 10° ESE visible
30 Jun ? 10:03:10 10° NE 10:06:02 18° E 10:08:52 10° SE visible
01 Jul ? 10:13:33 10° NE 10:16:55 23° E 10:20:15 10° SSE visible
02 Jul ? 10:24:04 10° NE 10:27:47 30° E 10:31:27 10° SSE visible
03 Jul ? 10:34:40 10° NNE 10:38:38 40° E 10:42:33 10° SSE visible
04 Jul ? 10:45:20 10° NNE 10:49:27 53° E 10:53:32 10° S visible
05 Jul ? 10:56:04 10° NNE 11:00:15 73° E 11:04:25 10° S visible
06 Jul ? 11:06:51 10° N 11:11:04 84° W 11:15:13 10° SSW visible
